GFSWCAN_con_sbcape_336.txt.gz
CAPE
10 8 9 8 2 15 11 8 6 4 2 0 0 0 0 2 0 0 0 0 0 0 0 0 0 0 0 0 0 0 0 0 0 0 0 0 0 0 0 0 9 14 0 58 20 0 80 114 222 176 156 62 156 131
12 7 4 10 7 13 14 9 6 3 3 3 1 0 2 0 0 0 0 0 0 0 0 0 0 0 0 0 0 0 0 0 0 0 0 0 0 0 0 0 0 2 1 33 103 143 8 0 1 4 0 63 28 46
20 17 20 17 15 21 21 13 7 5 4 4 4 4 0 0 0 0 0 0 0 0 0 0 0 0 0 0 0 0 0 0 0 0 0 0 0 0 0 0 0 0 0 3 4 40 3 0 0 0 0 0 0 0
25 22 17 8 15 21 28 21 13 7 4 1 0 0 1 0 0 0 0 0 0 0 0 0 0 0 0 0 0 0 0 0 0 0 0 0 0 0 0 0 0 0 0 0 0 0 0 0 0 0 0 0 0 0
26 25 22 4 19 36 31 0 0 0 0 0 0 0 0 0 0 0 0 0 0 0 0 0 0 0 0 0 0 0 0 0 0 0 0 0 0 0 0 0 0 0 0 0 0 0 0 0 0 0 0 0 0 0
31 23 23 20 18 33 33 11 0 0 0 0 0 0 0 0 0 0 0 0 0 0 0 0 0 0 0 0 0 0 0 0 0 0 0 0 0 0 0 0 0 0 0 0 0 0 0 0 0 0 0 0 0 0
55 39 27 23 22 19 32 28 13 1 0 0 0 0 0 0 0 0 0 0 0 0 0 0 0 0 0 0 0 0 0 0 0 0 0 0 0 0 0 0 0 0 0 0 0 0 0 0 0 0 0 0 0 0
62 51 32 26 23 22 23 36 37 13 0 0 0 0 0 0 0 0 0 0 0 0 0 0 0 0 0 0 0 0 0 0 0 0 0 0 0 0 0 0 0 0 0 0 0 0 0 0 0 0 0 0 0 0
73 51 34 29 26 21 18 19 46 30 9 0 0 0 1 0 0 0 0 0 0 0 7 1 0 0 0 0 0 0 0 0 0 0 0 0 0 0 0 0 0 0 0 0 0 0 0 0 0 0 0 0 0 0
90 79 59 48 32 24 21 17 20 21 16 0 0 0 0 0 0 0 0 1 20 8 19 6 0 0 0 0 0 0 0 0 0 0 0 0 0 0 0 0 0 0 0 0 0 0 0 0 0 0 0 0 0 0
100 103 65 72 55 28 35 32 33 39 24 0 1 0 0 0 0 0 0 9 1 22 16 10 0 0 0 0 0 0 0 0 0 0 0 0 0 0 0 0 0 0 0 0 0 0 0 0 0 0 0 0 0 0
99 106 91 77 55 40 40 26 37 18 0 0 0 0 0 1 1 7 1 1 2 1 0 3 0 0 0 0 0 4 24 3 2 0 0 0 0 0 0 0 0 0 0 0 0 0 0 0 0 0 0 0 0 0
85 81 98 97 78 55 38 48 40 1 0 1 6 24 4 4 23 12 1 4 6 0 0 0 0 0 0 0 4 1 7 24 6 5 4 0 0 0 0 0 0 0 0 0 0 0 0 0 0 0 0 0 0 0
57 68 68 90 89 63 50 56 35 13 2 20 3 4 8 30 0 0 0 0 0 0 0 0 0 11 0 2 23 33 0 0 0 13 5 0 0 0 0 0 0 0 0 0 0 0 0 0 0 0 0 0 0 0
61 62 66 64 84 74 64 50 36 11 10 33 31 1 0 0 0 0 0 0 0 7 7 19 15 8 5 47 42 34 53 34 1 0 0 1 0 0 0 2 0 0 0 0 0 0 0 0 0 0 0 0 0 0
74 60 31 64 71 82 69 38 28 7 13 50 28 3 0 0 0 0 0 6 7 29 3 35 2 0 9 24 58 55 59 16 4 0 0 0 0 0 0 2 2 1 0 0 0 0 0 0 0 0 0 0 0 0
62 0 52 61 68 98 67 31 27 10 20 20 20 0 0 0 0 1 30 19 31 55 33 26 38 0 0 7 23 1 3 0 0 0 0 0 0 0 0 1 1 0 0 0 0 0 0 0 0 0 0 0 0 0
0 0 49 57 36 33 18 8 47 20 6 3 1 0 0 0 3 2 12 51 26 41 23 37 4 1 0 0 0 0 0 0 0 0 0 0 0 0 0 0 1 0 0 0 0 2 0 0 0 0 0 0 0 0
0 12 70 64 2 13 5 1 1 12 6 11 0 0 0 0 0 0 9 19 17 1 2 3 5 7 0 0 11 0 0 0 0 0 0 0 0 0 0 0 0 0 0 0 0 5 1 0 0 0 0 0 0 4
77 64 78 72 43 21 35 26 13 16 22 0 0 0 0 0 0 0 0 7 1 3 0 0 0 0 0 0 0 0 0 0 0 0 0 0 0 0 0 0 0 3 0 0 0 3 13 0 0 3 10 0 0 0
2 13 38 45 30 17 2 9 9 6 0 0 0 0 0 0 0 0 0 0 20 2 0 0 0 0 0 0 0 0 0 0 0 0 0 0 0 0 0 0 0 2 2 0 18 18 21 0 0 0 0 0 0 0
11 26 13 34 16 9 5 3 2 1 6 0 1 14 6 0 0 0 0 0 0 0 0 0 0 0 0 0 0 0 0 0 0 0 0 0 0 0 0 1 2 0 2 1 9 0 0 0 0 0 0 0 0 0
29 26 7 12 15 1 1 17 34 33 43 13 13 29 6 0 0 0 3 0 0 0 0 0 0 0 0 0 0 0 0 0 0 0 0 0 0 0 0 0 1 1 2 0 3 5 1 0 0 0 0 0 0 0
27 3 0 6 4 0 0 17 13 29 22 22 18 20 9 2 4 4 1 0 0 0 0 0 0 0 0 0 0 0 0 0 0 0 0 1 0 0 0 0 0 0 3 7 1 2 0 0 0 0 0 0 0 0
0 2 1 1 7 12 13 13 18 16 0 0 1 0 0 16 9 0 0 0 0 0 0 0 0 0 0 0 0 0 0 0 1 8 5 2 0 0 1 0 0 0 0 3 1 1 0 0 0 0 0 0 0 0
1 3 2 6 18 26 12 14 6 3 4 0 0 0 0 0 21 3 0 11 22 1 0 0 0 0 1 5 4 1 8 4 2 0 1 12 3 0 0 0 0 0 0 3 1 0 0 0 0 0 0 0 0 0
1 7 0 0 3 6 4 5 18 13 14 15 8 11 17 9 0 0 7 0 4 0 0 0 12 0 2 0 0 0 1 13 49 25 20 2 0 0 0 0 0 0 0 1 5 2 0 0 0 0 0 0 0 0
0 0 1 0 0 0 1 10 18 19 20 5 5 8 18 14 6 38 103 53 0 0 0 0 0 0 0 0 0 0 0 0 1 0 1 4 7 6 0 0 0 0 0 5 10 1 0 0 0 0 0 0 0 0
0 0 0 2 7 7 6 14 16 30 34 15 4 3 4 19 10 0 2 57 2 0 0 0 0 0 6 3 0 4 0 2 4 0 8 28 33 15 4 6 0 4 0 10 3 0 0 0 0 0 0 0 0 0
0 0 3 7 11 9 11 6 16 8 1 4 0 5 23 15 5 0 1 1 22 13 23 11 7 0 0 2 21 18 1 0 0 1 0 1 6 1 6 3 3 8 20 9 6 2 0 0 0 0 0 0 0 0
0 1 7 6 7 2 2 1 0 0 0 0 9 6 0 2 4 1 0 0 0 0 6 16 20 45 56 67 66 54 24 1 17 8 0 13 0 0 5 8 5 1 15 5 3 0 0 0 0 0 0 0 0 0
0 0 0 0 0 0 0 0 0 0 0 0 0 0 0 3 3 64 102 66 22 47 47 21 41 15 1 19 44 33 1 35 13 4 2 0 0 0 0 0 0 0 1 8 8 19 18 0 0 0 0 0 0 0
0 0 0 0 0 0 10 7 5 0 0 5 26 17 26 35 21 4 32 48 45 39 25 0 0 0 0 0 0 0 0 0 0 0 0 0 0 0 0 0 0 0 0 1 0 0 0 3 3 1 1 1 1 0

GFSWCAN_con_sbcape_339.txt.gz
CAPE
2 6 1 0 1 5 7 1 9 9 7 7 4 0 0 0 0 1 0 0 0 0 0 0 0 0 0 0 0 0 0 0 0 0 0 0 0 0 0 0 0 1 0 0 0 0 9 0 0 17 0 10 124 202
11 7 0 0 0 0 3 9 9 10 6 9 7 5 0 0 0 0 0 0 0 0 0 0 0 0 0 0 0 0 0 0 0 0 0 0 0 0 0 0 0 1 0 0 3 29 0 0 3 0 0 7 5 2
24 19 17 18 16 16 4 14 19 10 9 8 8 7 3 0 0 0 0 0 0 0 0 0 0 0 0 0 0 0 0 0 0 0 0 0 0 0 0 0 0 0 0 32 4 9 0 0 0 0 0 0 0 0
28 20 24 24 14 13 3 25 27 21 15 10 3 0 0 0 0 1 0 0 0 0 0 0 0 0 0 0 0 0 0 0 0 0 0 0 0 0 0 0 0 0 0 0 0 0 0 0 0 0 0 0 0 0
37 13 20 19 17 15 10 38 12 5 2 0 0 0 0 0 0 0 0 0 0 0 0 0 0 0 0 0 0 0 0 0 0 0 0 0 0 0 0 0 0 0 0 0 0 0 0 0 0 0 0 0 0 0
58 31 26 25 19 16 0 19 22 8 1 0 0 0 0 0 0 0 0 0 0 0 0 0 0 0 0 0 0 0 0 0 0 0 0 0 0 0 0 0 0 0 0 0 0 0 0 0 0 0 0 0 0 0
45 55 32 25 26 22 15 12 34 21 6 0 0 0 0 0 0 0 0 0 0 0 0 0 0 0 0 0 0 0 0 0 0 0 0 0 0 0 0 0 0 0 0 0 0 0 0 0 0 0 0 0 0 0
48 47 39 27 19 26 24 23 24 38 24 1 0 0 0 0 0 0 0 0 0 0 0 0 0 0 0 0 0 0 0 0 0 0 0 0 0 0 0 0 0 0 0 0 0 0 0 0 0 0 0 0 0 0
59 56 50 35 29 35 26 27 22 40 29 4 0 0 0 0 0 0 0 0 0 0 2 0 0 0 0 0 0 0 0 0 0 0 0 0 0 0 0 0 0 0 0 0 0 0 0 0 0 0 0 0 0 0
75 78 83 55 34 30 26 23 19 16 16 5 0 0 0 0 0 0 0 1 8 1 1 8 0 0 0 0 0 0 0 0 0 0 0 0 0 0 0 0 0 0 0 0 0 0 0 0 0 0 0 0 0 0
83 89 100 70 61 50 29 27 23 31 18 0 1 0 0 0 0 0 0 7 5 11 9 2 0 0 0 0 0 0 0 0 0 0 0 0 0 0 0 0 0 0 0 0 0 0 0 0 0 0 0 0 0 0
84 97 103 87 64 62 39 23 29 27 2 0 0 0 0 0 0 4 14 2 6 10 6 8 0 0 0 0 0 0 1 0 0 0 0 0 0 0 0 0 0 0 0 0 0 0 0 0 0 0 0 0 0 0
71 83 96 112 74 57 57 37 25 5 0 0 13 13 2 1 4 35 9 13 11 0 1 0 0 0 0 0 0 0 0 4 0 2 0 0 0 0 0 0 0 0 0 0 0 0 0 0 0 0 0 0 0 0
62 68 63 76 75 67 63 49 41 15 0 10 8 0 8 8 0 0 0 2 12 0 0 0 0 0 0 0 10 29 0 0 0 3 0 0 0 0 0 0 0 0 0 0 0 0 0 0 0 0 0 0 0 0
55 61 55 66 72 80 71 63 49 7 7 13 29 3 0 0 0 0 0 0 0 9 0 0 2 0 0 29 36 28 42 10 0 0 0 0 0 0 0 0 0 0 0 0 0 0 0 0 0 0 0 0 0 0
57 44 14 52 67 83 70 49 36 6 3 24 40 13 0 0 0 0 0 0 0 10 23 20 8 0 8 11 29 59 45 12 1 0 0 0 0 0 0 0 0 0 0 0 0 0 0 0 0 0 0 0 0 0
29 0 41 67 61 72 59 21 19 5 5 22 10 0 0 0 0 0 0 3 27 67 31 1 15 9 0 0 0 2 5 8 0 0 0 0 0 0 0 0 0 0 0 0 0 0 0 0 0 0 0 0 0 0
0 0 65 63 23 22 2 6 22 20 17 4 0 0 0 0 0 0 0 20 38 16 14 24 1 0 3 12 2 3 6 11 1 0 0 0 0 0 0 0 0 0 0 0 0 0 0 0 0 0 0 0 0 0
0 0 58 45 0 2 3 2 0 11 6 5 0 0 0 0 0 0 0 10 8 1 0 0 2 4 0 0 6 4 6 3 3 0 0 0 0 0 0 0 0 0 0 0 0 0 0 0 0 0 0 0 0 0
16 52 69 42 33 23 20 5 3 4 10 0 0 0 0 0 0 0 0 0 4 6 9 7 0 0 0 0 0 0 0 0 0 0 0 0 0 0 0 0 0 0 2 0 0 0 0 0 0 0 0 0 0 0
14 28 73 18 14 6 1 9 2 0 0 0 0 0 0 0 0 0 0 0 0 1 0 0 0 0 0 0 0 0 0 0 0 0 0 0 0 0 0 0 0 0 1 3 1 0 0 0 0 0 0 0 0 0
4 37 16 30 15 13 2 0 0 1 1 0 0 0 0 0 0 0 0 0 0 0 0 0 0 0 0 0 0 0 0 0 0 0 0 0 0 0 0 0 0 0 4 1 2 0 0 1 0 0 0 0 0 0
10 6 15 9 11 3 0 5 12 20 22 3 0 3 0 0 0 0 0 0 0 0 0 0 0 0 0 0 0 0 0 0 0 0 0 0 0 0 0 0 0 0 3 2 7 1 1 0 0 0 0 0 0 0
26 5 4 4 8 1 0 22 24 20 8 6 14 16 0 0 0 0 0 0 0 0 0 0 0 0 0 0 0 0 0 0 0 0 0 0 0 0 0 0 0 0 0 0 6 2 1 1 0 1 0 0 0 0
1 2 1 0 7 6 15 7 6 9 0 10 3 0 0 0 0 0 0 0 0 0 0 0 0 0 0 0 0 0 0 0 0 0 0 0 0 0 0 0 0 0 0 3 10 5 3 1 0 5 0 0 0 0
0 2 4 6 9 7 12 14 0 1 1 0 0 0 0 0 0 0 0 0 0 0 0 0 0 0 0 0 0 0 0 0 0 0 0 0 0 0 0 0 0 0 0 3 37 23 8 1 0 0 0 0 0 0
3 6 0 1 0 13 4 1 2 4 1 1 0 0 0 3 0 0 0 0 0 0 0 0 0 0 0 0 0 0 0 0 0 0 0 0 0 0 0 0 0 0 0 0 20 31 21 4 0 0 0 0 0 0
1 0 0 0 0 0 0 0 5 11 6 0 0 1 0 0 0 0 0 0 0 0 0 0 0 0 0 0 0 0 0 0 0 0 0 0 0 0 0 0 0 0 0 0 29 3 11 1 0 0 0 0 1 0
0 0 0 0 0 0 0 0 0 0 3 3 5 3 0 0 0 0 0 0 0 0 0 0 0 0 0 0 0 0 0 0 0 0 0 0 0 0 0 0 0 0 0 5 5 0 0 0 0 0 0 0 0 0
0 0 0 0 0 0 0 0 0 1 0 0 0 0 0 0 0 0 0 0 0 0 0 0 0 0 0 0 0 0 0 0 0 0 0 1 2 0 0 0 0 0 2 23 19 29 18 20 6 0 0 0 0 0
0 0 0 0 0 0 0 0 0 0 0 0 0 0 0 0 0 0 1 0 0 0 0 0 9 17 29 16 13 15 13 4 22 7 1 6 8 0 0 0 0 0 7 39 26 21 26 26 19 12 0 0 0 0
0 0 0 0 0 0 0 0 0 0 0 0 0 0 0 0 0 0 31 7 4 13 10 6 7 2 0 0 0 0 0 0 0 0 0 0 0 0 0 0 0 0 0 3 6 30 52 52 39 7 0 0 0 0
0 0 0 0 0 0 0 0 1 0 0 0 0 0 4 14 22 5 0 4 3 6 5 0 0 0 0 0 0 0 0 0 0 0 0 0 0 0 0 0 0 0 0 0 0 0 0 0 0 0 2 0 0 0

GFSWCAN_con_sbcape_342.txt.gz
CAPE
30 14 8 0 0 0 0 0 10 2 2 10 10 10 2 1 0 1 0 0 0 0 0 0 0 0 0 0 0 0 0 0 0 0 0 0 0 0 0 0 0 0 0 0 0 0 0 0 33 2 1 0 205 503
26 32 12 10 6 6 1 0 1 13 6 12 10 13 8 1 1 1 0 0 0 0 0 0 0 0 0 0 0 0 0 0 0 0 0 0 0 0 0 0 0 0 0 0 1 0 0 0 0 0 0 15 37 162
17 33 32 17 28 23 11 5 0 14 19 8 10 16 11 2 1 1 0 0 0 0 0 0 0 0 0 0 0 0 0 0 0 0 0 0 0 0 0 0 0 0 0 0 2 0 0 0 0 0 0 0 0 0
16 22 21 30 31 30 19 7 25 32 22 21 19 12 1 0 0 1 0 0 0 0 0 0 0 0 0 0 0 0 0 0 0 0 0 0 0 0 0 0 0 0 0 0 0 0 0 0 0 0 0 0 0 0
24 25 26 19 25 16 26 6 12 33 15 4 0 0 0 0 0 0 0 0 0 0 0 0 0 0 0 0 0 0 0 0 0 0 0 0 0 0 0 0 0 0 0 0 0 0 0 0 0 0 0 0 0 0
20 23 22 22 39 26 20 15 2 10 23 6 0 0 0 0 0 0 0 0 0 0 0 0 0 0 0 0 0 0 0 0 0 0 0 0 0 0 0 0 0 0 0 0 0 0 0 0 0 0 0 0 0 0
27 23 27 27 35 38 35 29 6 16 7 15 4 0 0 0 0 0 0 0 0 0 0 0 0 0 0 0 0 0 0 0 0 0 0 0 0 0 0 0 0 0 0 0 0 0 0 0 0 0 0 0 0 0
63 40 31 30 35 38 37 37 25 12 19 22 6 0 0 0 0 0 0 0 0 0 0 0 0 0 0 0 0 0 0 0 0 0 0 0 0 0 0 0 0 0 0 0 0 0 0 0 0 0 0 0 0 0
70 63 49 46 51 36 44 32 27 22 21 22 1 0 0 0 0 0 0 0 0 0 0 0 0 0 0 0 0 0 0 0 0 0 0 0 0 0 0 0 0 0 0 0 0 0 0 0 0 0 0 0 0 0
90 98 74 61 59 35 57 43 26 21 19 3 0 0 0 0 0 0 0 4 4 2 2 3 0 0 0 0 0 0 0 0 0 0 0 0 0 0 0 0 0 0 0 0 0 0 0 0 0 0 0 0 0 0
66 86 78 64 70 69 62 43 28 17 22 0 0 1 0 0 0 0 3 3 4 9 12 6 0 0 0 0 0 0 0 0 0 0 0 0 0 0 0 0 0 0 0 0 0 0 0 0 0 0 0 0 0 0
69 66 68 95 80 84 64 41 22 28 7 0 1 0 0 1 12 19 10 4 3 7 31 23 0 0 0 0 0 0 0 0 0 0 0 0 0 0 0 0 0 0 0 0 0 0 0 0 0 0 0 0 0 0
66 69 69 86 94 74 74 55 30 17 0 0 49 77 46 11 8 52 26 7 12 0 1 0 0 0 0 0 0 0 0 0 0 0 0 0 0 0 0 0 0 0 0 0 0 0 0 0 0 0 0 0 0 0
48 58 55 49 66 75 79 69 37 25 0 5 86 47 8 13 0 0 0 1 0 0 0 0 0 0 0 0 0 10 1 0 0 16 0 0 0 0 0 0 0 0 0 0 0 0 0 0 0 0 0 0 0 0
47 43 47 36 38 45 55 60 66 1 4 8 41 13 1 0 0 0 0 0 0 1 4 0 1 0 1 3 18 27 18 10 0 0 0 0 0 0 0 0 0 0 0 0 0 0 0 0 0 0 0 0 0 0
45 38 25 22 37 45 41 56 33 3 4 12 18 44 0 0 1 0 0 0 0 4 11 1 15 1 10 19 27 50 57 12 1 0 0 0 0 0 0 0 0 0 0 0 0 0 0 0 0 0 0 0 0 0
46 2 14 38 40 46 54 39 22 14 11 10 21 0 0 0 0 0 0 0 4 24 15 34 21 15 0 1 1 6 7 11 0 0 0 0 0 0 0 0 0 0 0 0 0 0 0 0 0 0 0 0 0 0
0 0 49 63 27 33 12 13 19 19 12 8 3 0 0 0 0 0 0 6 41 28 12 16 0 13 17 10 19 19 3 0 0 0 0 0 0 0 0 0 0 0 0 0 0 0 0 0 0 0 0 0 0 0
0 0 66 35 3 7 9 8 2 10 12 2 0 0 0 0 0 0 0 0 1 0 2 2 0 2 2 3 23 17 9 3 0 0 0 0 0 0 0 0 0 0 0 0 0 2 1 1 0 0 0 0 0 0
4 48 51 13 25 6 10 9 0 1 5 0 0 0 0 0 0 0 0 0 0 0 2 0 0 0 0 0 1 0 0 0 0 0 0 0 0 0 0 0 0 0 0 0 0 1 3 2 0 0 0 0 0 0
10 28 31 5 3 0 2 4 0 0 0 0 0 0 0 0 0 0 0 0 0 0 0 0 0 0 0 0 0 0 0 0 0 0 0 0 0 0 0 0 0 0 0 0 3 2 2 3 1 4 1 0 0 0
30 36 7 20 3 5 3 0 1 1 0 0 0 0 0 0 0 0 0 0 0 0 0 0 0 0 0 0 0 0 0 0 0 0 0 0 0 0 0 0 0 0 0 0 0 2 4 4 4 4 8 1 0 0
0 5 10 5 11 2 0 0 3 0 4 2 0 0 0 0 0 0 0 0 0 0 0 0 0 0 0 0 0 0 0 0 0 0 0 0 0 0 0 0 0 0 0 0 0 0 2 2 1 1 2 3 0 0
6 6 6 0 2 0 0 10 11 12 17 4 0 10 0 0 0 0 0 0 0 0 0 0 0 0 0 0 0 0 0 0 0 0 0 0 0 0 0 0 0 0 0 0 0 1 4 5 2 4 8 7 0 0
1 2 0 0 7 10 18 22 10 8 5 0 0 0 0 0 0 0 0 0 0 0 0 0 0 0 0 0 0 0 0 0 0 0 0 0 0 0 0 0 0 0 0 1 1 1 3 8 4 4 5 2 0 0
0 0 0 8 2 0 2 11 0 0 0 0 0 0 0 0 0 0 0 0 0 0 0 0 0 0 0 0 0 0 0 0 0 0 0 0 0 0 0 0 0 0 0 0 0 1 17 23 5 12 3 0 0 0
1 5 0 0 7 12 13 4 1 0 0 0 0 0 0 0 0 0 0 0 0 0 0 0 0 0 0 0 0 0 0 0 0 0 0 0 0 0 0 0 0 0 0 0 1 11 43 20 14 8 12 4 1 0
6 4 2 0 0 0 2 0 1 0 0 0 0 0 0 0 0 0 0 0 0 0 0 0 0 0 0 0 0 0 0 0 0 0 0 0 0 0 0 0 0 0 0 4 36 104 41 1 5 18 2 4 7 1
0 0 0 0 0 0 0 0 0 0 0 3 1 0 0 0 0 0 0 0 0 0 0 0 0 0 0 0 0 0 0 0 0 0 0 0 0 0 0 0 0 0 0 5 0 24 19 0 0 1 0 0 0 1
0 0 0 0 0 0 0 0 0 0 0 0 0 0 0 0 0 0 0 0 0 0 0 0 0 0 0 0 0 3 0 0 0 0 0 0 0 0 0 0 0 0 0 44 72 49 7 2 7 0 0 0 0 0
0 0 0 0 0 0 0 0 0 0 0 0 0 0 0 0 0 0 1 0 0 0 0 0 0 0 0 0 0 0 0 0 0 0 0 0 1 0 0 0 0 0 6 67 106 83 19 6 8 5 0 0 0 0
0 0 0 0 0 0 0 0 0 0 0 0 0 0 0 0 0 0 0 0 0 0 0 0 0 0 0 0 0 0 0 0 0 0 0 0 0 0 0 0 0 8 77 138 89 33 3 11 17 12 15 18 0 0
0 0 0 0 0 0 0 0 1 0 0 0 0 0 0 0 14 0 0 0 0 0 1 0 0 0 1 0 0 0 0 0 0 0 0 0 0 0 0 0 0 0 13 8 10 10 2 17 56 67 60 47 25 16

GFSWCAN_con_sbcape_345.txt.gz
CAPE
13 18 18 16 5 0 0 0 0 0 1 10 5 12 9 6 1 1 0 0 0 0 0 0 0 0 0 0 0 0 0 0 0 0 0 1 0 0 0 0 9 42 133 11 0 0 0 43 317 404 328 416 832 1431
22 16 11 16 15 6 4 10 9 5 0 16 6 10 11 8 0 3 0 0 0 0 0 0 0 0 0 0 0 0 0 0 0 0 0 0 0 0 0 7 0 197 55 359 283 138 55 42 107 111 187 744 759 1572
29 21 20 25 20 12 4 8 12 4 33 28 19 8 27 4 0 2 1 0 0 0 0 0 0 0 0 0 0 0 0 0 0 0 0 0 0 0 0 0 0 0 0 353 205 122 111 52 97 156 249 540 429 772
29 21 15 22 20 6 4 4 19 12 36 38 32 24 3 0 0 2 4 2 1 0 0 0 0 0 0 0 0 0 0 0 0 0 0 0 0 0 0 0 0 0 0 62 34 30 13 5 78 197 37 38 94 134
34 25 14 17 22 16 5 9 20 8 22 33 8 1 0 0 0 0 2 1 2 0 0 0 0 0 0 0 0 0 0 0 0 0 0 0 0 0 0 0 0 0 19 32 23 305 291 198 33 0 14 24 17 8
17 20 18 20 24 21 20 15 15 9 19 10 18 2 0 0 0 0 2 3 2 5 1 0 0 0 0 0 0 0 0 0 0 0 0 0 0 0 0 0 0 0 0 0 0 0 0 0 0 0 0 0 0 0
27 27 27 25 30 25 29 34 32 27 20 20 24 7 0 0 0 0 3 5 0 0 2 0 0 0 0 0 0 0 0 0 0 0 0 0 0 0 0 0 0 0 0 0 0 0 0 0 0 0 0 0 0 18
71 61 69 57 37 33 40 32 36 30 30 10 9 0 0 0 0 0 0 0 0 0 4 2 0 0 0 0 0 0 0 0 0 0 0 0 0 0 0 0 0 0 0 0 0 0 0 0 0 0 0 0 26 57
72 64 70 67 50 47 42 31 35 32 29 18 16 0 0 5 4 0 0 0 0 5 41 12 0 0 0 0 0 0 0 0 0 0 0 0 0 0 0 0 0 0 0 0 0 0 0 0 0 0 0 0 35 166
83 72 65 78 65 58 61 42 39 40 29 25 1 10 17 0 0 1 9 18 5 4 3 28 0 0 0 0 0 0 0 0 0 0 0 0 0 0 0 0 0 0 0 0 0 0 0 0 0 0 0 0 42 195
84 74 71 72 65 72 90 49 38 27 33 17 14 14 2 0 7 0 29 33 20 53 10 18 22 0 0 0 0 0 0 0 0 0 0 0 0 0 0 0 0 0 0 0 0 0 0 0 0 0 0 0 0 41
70 69 66 75 58 71 75 50 36 56 47 12 13 1 41 115 64 36 17 7 6 23 29 32 2 0 0 0 0 0 0 0 2 0 0 0 0 0 0 0 0 0 0 0 0 0 0 0 0 0 0 0 0 0
71 65 65 68 67 67 81 43 37 39 23 24 74 63 128 61 28 19 14 3 14 0 27 15 1 0 0 0 0 0 0 8 0 0 0 0 0 0 0 0 0 0 0 0 0 0 0 0 0 0 0 0 0 0
55 55 59 67 72 56 46 39 47 38 18 44 90 53 108 80 18 5 1 5 0 0 10 19 6 30 9 31 26 13 4 0 1 17 3 0 0 0 0 0 0 0 0 0 0 0 0 0 0 0 0 0 0 0
57 46 45 53 43 26 31 12 15 43 30 19 71 31 16 14 0 0 0 0 0 10 15 21 2 26 17 64 96 53 15 14 0 0 0 0 0 0 0 0 0 0 0 0 0 0 0 0 0 0 0 0 0 0
45 40 36 43 33 25 34 11 36 37 19 22 18 25 47 25 48 26 9 0 0 16 35 26 4 3 38 63 47 67 45 17 0 0 0 0 0 0 0 0 0 0 0 0 0 0 0 0 0 0 0 0 0 0
43 24 34 33 37 35 20 25 42 33 11 15 39 16 29 25 40 62 13 56 26 80 27 24 37 20 2 4 18 5 3 0 0 0 0 0 0 0 0 0 0 0 0 0 0 0 0 0 0 0 0 0 0 0
12 2 40 32 22 21 26 28 31 29 10 11 8 24 0 11 10 6 0 2 108 92 64 28 32 30 13 9 24 14 5 0 0 0 0 0 0 0 0 0 0 0 0 0 0 0 0 0 0 0 0 0 0 0
9 3 39 31 8 11 12 15 25 9 15 17 10 2 1 8 21 8 0 0 4 66 33 23 31 20 27 27 24 18 36 26 0 0 0 0 0 0 0 0 0 0 0 0 0 0 0 0 0 0 0 0 0 0
14 29 46 22 21 20 11 14 19 18 9 16 0 2 0 0 7 3 0 1 6 7 25 10 8 1 16 52 91 154 113 90 11 0 0 0 0 0 0 0 0 0 0 0 0 0 0 0 0 0 2 3 4 0
24 40 43 14 10 5 2 12 24 2 3 6 2 0 0 0 0 0 0 0 10 0 0 13 13 0 1 18 34 13 0 0 0 0 0 0 0 0 0 0 0 0 0 0 0 0 0 0 0 1 4 3 4 7
43 16 14 22 10 6 9 13 16 27 45 19 6 2 8 0 0 0 0 0 0 0 0 0 1 1 0 0 0 0 0 0 0 0 0 0 0 0 0 0 0 0 0 0 0 0 0 0 0 3 6 0 1 9
9 15 12 20 8 2 0 15 26 14 26 47 27 26 37 28 2 0 0 0 0 0 0 0 0 0 0 0 0 0 0 0 0 0 0 0 0 0 0 0 0 0 0 0 0 0 0 0 0 3 0 3 5 8
8 9 6 6 6 7 0 10 26 22 35 20 23 33 30 17 0 0 0 0 0 0 0 0 0 0 0 0 0 0 0 0 0 0 0 0 0 0 0 0 0 0 0 0 0 0 0 0 0 10 10 13 11 6
0 4 1 0 15 22 12 16 21 6 15 2 1 8 17 2 50 13 0 0 0 0 0 0 0 0 0 0 0 0 0 0 0 0 0 0 0 0 1 1 1 0 0 0 0 0 0 0 2 7 13 12 10 10
0 2 1 13 9 5 21 25 10 7 9 4 0 0 0 2 6 0 0 4 78 77 48 18 13 1 0 0 0 0 0 0 0 0 0 0 0 2 10 16 9 0 13 0 0 0 0 0 12 17 16 7 1 1
0 4 0 0 4 24 20 11 12 18 22 3 28 25 29 33 12 10 52 43 108 107 46 5 5 9 1 0 0 0 0 0 0 0 0 0 0 0 0 0 0 1 13 8 17 16 4 24 47 12 15 14 23 14
1 13 10 2 6 12 4 3 2 22 22 27 87 56 46 34 59 220 120 96 59 10 6 2 0 0 0 0 0 0 0 0 1 2 0 0 0 0 2 0 0 0 0 4 19 46 74 79 23 13 6 1 12 11
1 0 1 4 3 1 3 5 44 62 112 144 62 20 101 101 68 70 27 3 1 3 10 0 0 0 0 0 0 0 0 0 19 30 36 51 50 65 33 31 19 21 22 34 0 0 88 64 4 10 3 0 1 1
0 0 0 0 0 3 13 0 19 19 41 76 28 7 12 12 13 1 0 0 1 2 1 0 1 1 9 24 70 81 69 37 30 56 76 80 76 45 63 51 42 59 58 68 147 140 1 7 18 22 2 11 4 0
0 0 0 0 0 6 3 0 0 0 0 0 2 4 4 1 0 0 74 96 64 23 3 6 7 25 147 150 146 163 142 147 68 38 34 42 50 23 17 39 22 104 113 148 256 329 343 98 57 32 9 1 1 0
0 0 0 0 0 0 0 0 0 0 0 0 0 0 0 0 0 0 100 109 83 64 16 37 64 49 14 7 4 12 1 21 27 29 29 27 21 15 19 11 26 289 331 284 166 95 39 23 24 25 34 22 9 6
0 0 0 0 0 0 0 4 37 40 40 47 35 14 8 44 53 105 28 36 62 51 60 63 22 28 44 34 20 10 4 14 3 0 0 0 0 0 0 10 9 3 223 248 153 153 116 55 31 26 46 30 19 5